Location: Fanzolo
(45.7167°N, 11.9833°E)
Time: 06:32:06
(UTC+00:00)

Daily predictions for brighter satellites

Satellite Brightness Start Highest point End
(mag) Time Altitude Azimuth Time Altitude Azimuth Time Altitude Azimuth
MOS 1 4.3 18:42:41 10° SSE 18:48:18 71° ENE 18:53:57 10° N
Genesis I 3.2 18:46:00 10° NW 18:49:54 85° SW 18:53:46 10° SSE
CZ-2C R/B 4.2 18:46:07 10° S 18:50:39 43° W 18:55:11 10° NNW
Cosmos 1934 Rocket 4.5 18:45:40 10° SSE 18:51:35 42° E 18:57:29 10° NNE
Cosmos 1238 Rocket 4.3 18:52:43 10° E 18:53:17 10° E 18:53:51 10° ENE
USA 276 3.2 18:50:56 10° WNW 18:53:57 39° N 18:56:58 10° E
Cosmos 1980 Rocket 2.3 18:48:55 10° NNW 18:54:36 68° ENE 19:00:12 10° SE
X-37B 0.6 18:51:28 10° W 18:54:37 78° S 18:57:47 10° E
Lacrosse 5 2.4 18:52:34 10° NW 18:57:30 50° NNE 19:02:26 10° ESE
IRIDIUM 104 4.3 18:52:45 10° S 18:57:58 80° E 19:03:12 10° N
CZ-2C R/B 4.3 18:54:42 10° NNE 18:58:53 34° E 19:02:57 10° SSE
Resurs 01 Rocket 2.5 18:57:56 10° SE 19:01:54 33° ENE 19:05:53 10° N
Cosmos 1833 Rocket 3.3 18:57:16 10° SW 19:02:50 64° WNW 19:08:27 10° NNE
USA 238 DEB 3.7 18:59:42 10° SSW 19:06:11 62° ESE 19:12:56 10° NE
USA 238 3.7 18:59:49 10° SSW 19:06:17 61° ESE 19:13:02 10° NE
SPOT 3 Rocket 3.8 19:01:40 10° SSE 19:06:44 56° ENE 19:11:49 10° N
Cosmos 1697 Rocket 3.4 19:01:25 10° NW 19:06:54 55° WSW 19:12:20 10° S
IRIDIUM 114 4.4 19:01:53 10° S 19:07:06 86° W 19:12:22 10° N
GP-B 4.2 19:03:50 10° NNE 19:07:32 25° E 19:11:10 10° SE
Cosmos 1867 3.7 19:02:52 10° SW 19:08:19 87° NW 19:13:48 10° NE
MOS 1 Rocket 4.3 19:03:08 10° N 19:08:30 61° WNW 19:13:37 10° SSW
CENTAUR R/B 2.9 19:04:36 10° S 19:09:56 39° ESE 19:16:09 10° NE
Cosmos 1666 Rocket 3.5 19:05:49 10° S 19:10:05 70° E 19:14:26 10° NNE
Cosmos 1954 Rocket 4.0 19:07:36 10° S 19:12:52 68° ESE 19:18:10 10° NNE
DMSP B5D2-2 4.0 19:09:38 10° NNE 19:14:55 80° ESE 19:20:10 10° S
FREGAT/IRIS 3.8 19:14:12 10° S 19:16:40 37° W 19:19:09 10° NNW
Cosmos 1821 Rocket 4.2 19:11:25 10° SSW 19:17:35 79° W 19:23:54 10° N
Ariane Rocket 3.7 19:12:43 10° S 19:17:40 55° W 19:22:39 10° NNW
Cosmos 405 Rocket 3.7 19:15:00 10° SSE 19:18:01 26° E 19:21:11 10° NE
Intercosmos 25 3.5 19:15:45 10° NNW 19:19:21 59° W 19:22:28 10° S
Cosmos 1812 4.2 19:17:16 10° NNW 19:20:52 38° W 19:24:27 10° SSW
SJ-6B 3.9 19:21:48 10° S 19:25:41 46° W 19:29:30 10° NNW
Cosmos 2333 Rocket 4.4 19:26:18 10° NNE 19:28:33 12° NE 19:30:48 10° ENE
NOSS 2 (A) 4.4 19:26:27 10° NW 19:28:57 55° SW 19:30:20 20° SSE
Cosmos 1140 Rocket 4.3 19:24:13 10° SW 19:29:22 57° WNW 19:34:34 10° NNE
Cosmos 1763 Rocket 4.0 19:24:17 10° N 19:29:23 44° ENE 19:33:12 17° SE
Cosmos 1437 Rocket 4.0 19:27:09 10° NNE 19:30:16 23° ENE 19:31:55 18° ESE
Resurs 1-3 3.6 19:26:19 10° SSE 19:30:42 86° WSW 19:35:07 10° NNW
OBJECT-B 1.2 19:30:06 10° S 19:33:21 64° W 19:36:38 10° NNW
Cosmos 2084 Rocket 3.6 19:30:57 10° SSW 19:34:58 48° ESE 19:39:06 10° NE
H-2A R/B 4.1 19:31:39 10° NNE 19:35:27 34° E 19:38:17 16° SSE
Cosmos 1633 Rocket 3.3 19:32:33 10° SSW 19:36:58 75° W 19:41:24 10° N
Cosmos 1184 Rocket 2.8 19:34:34 10° SSW 19:37:51 80° W 19:41:09 10° N
Landsat 7 4.5 19:36:27 18° SE 19:39:26 39° ENE 19:43:52 10° N
SPOT 5 4.4 19:38:25 14° E 19:40:15 18° ENE 19:43:13 10° NNE
Cosmos 921 Rocket 2.9 19:37:38 10° NNW 19:41:52 88° WSW 19:45:04 17° SSE
Cosmos 2123 Rocket 4.1 19:36:45 10° N 19:43:00 81° W 19:49:16 10° S
Cosmos 1535 Rocket 4.5 19:37:14 10° S 19:43:22 86° W 19:49:30 10° N
MetOp-B 4.3 19:40:53 17° SSE 19:45:00 61° ENE 19:50:17 10° N
Meteor 1-19 Rocket 4.3 19:46:10 10° N 19:51:31 55° ENE 19:54:59 22° SE
Cosmos 1605 Rocket 3.9 19:45:42 10° S 19:51:47 76° E 19:57:52 10° NNE
Okean 1 3.4 19:50:05 10° N 19:54:07 59° E 19:56:09 27° SSE
CZ-2C R/B 3.8 19:49:29 10° N 19:54:25 45° WNW 19:59:23 10° SW
NOSS 3-2 (A) 3.8 19:50:43 10° SW 19:56:24 67° NW 20:02:58 10° NE
USA 267 3.5 19:51:39 10° ENE 19:57:50 43° SE 20:03:59 10° SSW
Cosmos 2219 Rocket 4.2 19:55:41 10° N 19:59:09 16° NE 20:02:37 10° ENE
Meteor 2-4 Rocket 4.3 19:54:50 10° N 20:00:06 40° ENE 20:02:34 26° ESE
Cosmos 540 Rocket 4.0 19:57:22 10° N 20:02:19 43° ENE 20:04:39 27° ESE
SL-16 R/B 2.2 19:57:34 10° NNW 20:03:16 72° ENE 20:06:28 27° SE
SL-4 R/B 3.4 20:00:23 10° WNW 20:04:01 33° N 20:07:24 10° ENE
BREEZE-M DEB (TANK) 3.2 20:02:05 10° WNW 20:04:53 53° N 20:12:13 10° E
SL-27 R/B 2.2 20:04:28 38° SSE 20:05:29 58° ESE 20:08:45 10° NNE
Cosmos 2242 Rocket 3.5 20:02:19 10° N 20:06:46 84° E 20:09:08 27° SSE
Cosmos 1470 Rocket 3.9 20:02:26 10° SSW 20:06:48 64° W 20:11:09 10° N
NOSS 3-2 (C) 3.4 20:01:17 10° SW 20:06:59 86° NW 20:13:34 10° NE
Cosmos 2082 Rocket 4.0 20:06:30 10° WSW 20:11:39 34° NW 20:16:47 10° NNE
Cosmos 1459 Rocket 4.5 20:09:17 26° SE 20:12:14 42° E 20:18:10 10° NNE
BREEZE-M DEB (TANK) 2.6 20:10:08 10° WNW 20:12:21 37° N 20:12:31 36° NNE
ERS-1 Rocket 3.3 20:16:14 33° ESE 20:18:06 49° ENE 20:22:56 10° N
Meteor 1-14 Rocket 4.3 20:13:21 14° S 20:18:33 78° E 20:24:32 10° NNE
Cosmos 2322 Rocket 2.2 20:14:52 10° NNW 20:20:36 80° ENE 20:23:15 33° SSE
Cosmos 1850 Rocket 4.1 20:18:28 10° SSW 20:23:46 76° WNW 20:29:03 10° NNE
Cosmos 1500 3.3 20:25:36 51° E 20:25:36 51° E 20:29:16 10° NNE
SPOT 1/Viking Rocket 3.5 20:23:32 32° SSE 20:26:01 85° ENE 20:31:17 10° NNW
Cosmos 841 Rocket 3.5 20:22:47 10° NNW 20:28:02 73° ENE 20:29:56 40° SE
Terra 2.5 20:27:56 34° E 20:28:59 39° ENE 20:33:24 10° N
Cosmos 2360 Rocket 2.5 20:24:12 10° NNW 20:29:46 53° ENE 20:31:48 36° ESE
USA 276 2.2 20:27:16 10° WNW 20:30:10 66° WSW 20:30:10 66° WSW
Meteor 1-18 Rocket 4.5 20:24:57 10° NNW 20:30:28 65° W 20:33:52 24° S
X-37B 1.9 20:28:08 10° W 20:30:22 31° SW 20:30:22 31° SW
IGS 5A 3.7 20:29:39 34° S 20:31:16 63° W 20:35:25 10° NNW
Okean 3 4.0 20:27:39 10° N 20:31:45 41° ENE 20:32:07 40° E
ATLAS 3B R/B 2.6 20:25:37 10° SSW 20:32:02 56° ESE 20:38:29 10° NE
Cosmos 1238 Rocket 4.1 20:30:32 14° SW 20:32:29 27° WNW 20:35:09 10° NNW
USA 234 3.7 20:29:00 21° E 20:33:19 55° NNE 20:39:40 10° NW
Cosmos 2237 4.3 20:28:17 10° NNW 20:33:58 63° ENE 20:35:58 39° SE
Cosmos 1666 4.1 20:37:36 24° ENE 20:37:36 24° ENE 20:39:44 10° NNE
Cosmos 1980 Rocket 4.4 20:34:06 10° NW 20:37:59 19° W 20:41:51 10° SW
Resurs 01 Rocket 3.5 20:34:56 11° SSW 20:38:24 26° W 20:42:11 10° NW
Iridium 4 Rocket 3.4 20:38:44 44° E 20:38:44 44° E 20:42:39 10° NNE
Cosmos 44 3.5 20:34:05 10° NW 20:39:01 70° WSW 20:40:36 44° S
Lacrosse 5 2.7 20:35:43 10° WNW 20:40:24 39° SW 20:41:50 32° SSW
CARTOSAT-1 3.4 20:40:31 58° SSE 20:41:19 79° ENE 20:45:39 10° N
Cosmos 2061 Rocket 4.1 20:50:45 44° SE 20:52:23 57° E 20:58:26 10° NNE
Spot 2 Rocket 4.3 20:51:17 27° SSW 20:53:41 46° W 20:58:35 10° NNW
Cosmos 1814 Rocket 3.9 20:50:27 10° NNW 20:55:42 83° WSW 20:56:56 54° S
COSMOS 2428 3.8 20:51:02 10° N 20:56:08 32° NE 20:57:48 27° E
Cosmos 1802 Rocket 3.9 20:54:58 40° S 20:57:22 74° E 21:03:41 10° NNE
Cosmos 1869 Rocket 3.8 20:57:44 44° SW 20:59:00 66° W 21:03:28 10° N
Cosmos 2237 Rocket 4.3 20:56:36 10° N 21:00:10 17° NE 21:02:46 13° ENE
CENTAUR R/B 3.5 20:54:32 10° WSW 21:00:26 49° NW 21:07:26 10° NNE
Okean 1-7 4.1 20:56:37 10° NNW 21:00:37 39° W 21:01:52 31° SW
Cosmos 44 Rocket 4.4 20:58:32 10° NNW 21:03:08 36° NE 21:04:15 32° ENE
Cosmos 1437 Rocket 4.4 21:03:20 10° NW 21:06:28 25° W 21:07:19 23° WSW
Cosmos 2333 Rocket 2.6 21:08:41 10° NNW 21:14:19 50° ENE 21:15:19 45° E
ATLAS 5 CENTAUR R/B 2.4 21:11:24 10° NW 21:14:21 67° NE 21:14:58 59° E
Cosmos 1674 Rocket 4.3 21:10:22 10° N 21:13:54 40° NE 21:13:54 40° NE
SPOT 5 3.1 21:17:39 50° WSW 21:17:56 51° W 21:22:17 10° NNW
Cosmos 1066 Rocket 4.1 21:15:22 10° N 21:21:01 68° ENE 21:21:30 64° ESE
Cosmos 1486 Rocket 4.2 21:22:06 53° ENE 21:22:06 53° ENE 21:26:34 10° NNE
BREEZE-M DEB (TANK) 4.5 21:09:49 10° W 21:26:47 89° N 21:28:57 42° E
Cosmos 1733 Rocket 3.4 21:29:41 62° NNE 21:29:41 62° NNE 21:33:24 10° N
Meteor 1-11 Rocket 3.8 21:31:46 53° SW 21:33:05 73° WNW 21:38:54 10° N
Cosmos 968 Rocket 3.7 21:37:25 56° ENE 21:37:25 56° ENE 21:41:41 10° NNE
Lacrosse 4 Rocket 2.0 21:37:37 54° NNW 21:37:37 54° NNW 21:41:12 10° NNE
Tsikada Rocket 3.9 21:31:26 10° N 21:37:47 89° W 21:38:46 66° S
ALOS 2 4.4 21:39:37 23° NE 21:39:37 23° NE 21:42:29 10° NNE
USA 267 3.5 21:34:34 10° NE 21:41:03 67° NNW 21:47:31 10° WSW
Cosmos 2219 Rocket 2.1 21:38:26 10° NNW 21:44:09 74° ENE 21:44:23 73° E
SL-4 R/B 3.5 21:40:33 10° WNW 21:42:58 32° NNW 21:42:58 32° NNW
SL-16 R/B 4.1 21:42:58 10° WNW 21:46:43 18° W 21:48:19 16° WSW
Cosmos 1242 Rocket 4.4 21:48:46 10° NNW 21:50:53 30° NW 21:50:53 30° NW
Meteor 1-23 Rocket 4.3 21:51:06 10° NNW 21:56:53 67° W 21:57:14 65° WSW
Cosmos 1725 Rocket 4.4 21:55:18 45° SW 21:56:59 59° WNW 22:03:15 10° N
Cosmos 2322 3.8 21:51:52 10° NNW 21:57:25 63° WSW 21:57:25 63° WSW
Spot 4 4.2 21:58:19 59° NNE 21:58:19 59° NNE 22:02:27 10° N
Cosmos 1536 4.4 22:03:04 31° NW 22:03:04 31° NW 22:06:04 10° N
Cosmos 2322 Rocket 4.2 22:00:30 10° WNW 22:03:54 16° W 22:05:03 16° WSW
Cosmos 1378 Rocket 4.4 22:01:31 10° NNW 22:04:52 48° NNW 22:04:52 48° NNW
Terra 3.4 22:06:49 26° W 22:06:50 26° W 22:10:48 10° NW
Cosmos 2360 Rocket 3.6 22:08:50 10° NW 22:13:23 25° WSW 22:13:33 25° WSW
SL-16 R/B 4.0 22:11:28 10° N 22:15:52 22° NE 22:17:41 19° ENE
USA 234 3.3 22:16:20 59° SW 22:16:20 59° SW 22:22:46 10° WNW
MOS 1-B Rocket 4.1 22:17:08 10° N 22:22:40 61° WNW 22:23:10 58° W
ATLAS 3B R/B 3.8 22:16:52 10° WSW 22:22:58 39° NW 22:29:11 10° NNE
Cosmos 1354 Rocket 4.3 22:23:58 65° NNE 22:23:58 65° NNE 22:28:31 10° NNE
Cosmos 1975 Rocket 4.3 22:24:18 10° N 22:27:17 40° N 22:27:17 40° N
Cosmos 2297 Rocket 3.4 22:32:12 32° ENE 22:32:12 32° ENE 22:35:42 10° NE
Meteor 1-21 4.3 22:27:39 10° N 22:33:00 73° NNE 22:33:00 73° NNE
Meteor 2-9 Rocket 4.4 22:35:06 68° NE 22:35:06 68° NE 22:40:12 10° NNE
Thor Agena Rocket 3.9 22:30:35 10° N 22:35:03 62° NNW 22:35:03 62° NNW
Cosmos 1980 3.9 22:31:44 10° NNW 22:36:58 69° NNE 22:36:58 69° NNE
Nimbus 7 Rocket 4.4 22:31:43 10° NNE 22:37:08 72° NE 22:37:08 72° NE
Timation 2 Rocket 4.0 22:39:51 69° ENE 22:39:51 69° ENE 22:45:12 10° NNE
COSMOS 2428 3.4 22:35:08 10° NW 22:39:48 44° W 22:39:48 44° W
Cosmos 2219 3.9 22:46:31 46° ENE 22:46:31 46° ENE 22:50:39 10° NNE
Cosmos 2237 Rocket 2.4 22:39:31 10° NNW 22:44:34 69° N 22:44:34 69° N
SJ 16-02 4.1 22:47:38 11° ENE 22:47:38 11° ENE 22:47:56 10° ENE
Cosmos 1464 Rocket 3.9 22:46:12 82° NE 22:46:12 82° NE 22:52:08 10° N
NOSS 0 Rocket 4.1 22:46:12 10° NNW 22:51:50 63° W 22:51:50 63° W
Nadezhda 4 Rocket 4.0 22:48:51 10° N 22:54:56 73° ENE 22:54:56 73° ENE
Cosmos 2333 Rocket 3.7 22:53:29 10° NW 22:57:19 26° W 22:57:19 26° W
ALOS 2 4.4 23:17:00 25° NW 23:17:00 25° NW 23:19:14 10° NNW
Lacrosse 4 Rocket 4.5 23:15:31 10° NW 23:16:35 11° NW 23:17:38 10° NNW
Cosmos 1092 Rocket 4.1 23:10:42 10° N 23:16:44 67° ENE 23:16:44 67° ENE
Cosmos 2034 Rocket 4.0 23:19:27 76° WNW 23:19:27 76° WNW 23:25:40 10° N
Cosmos 2227 Rocket 2.5 23:22:00 63° NE 23:22:00 63° NE 23:26:43 10° NNE
Cosmos 2219 Rocket 4.2 23:23:45 10° WNW 23:26:05 16° W 23:26:05 16° W
Meteor 1-12 Rocket 4.4 23:28:42 75° NNW 23:28:42 75° NNW 23:34:20 10° N
Resurs 1-4 Rocket 4.2 23:32:28 10° NE 23:35:32 16° E 23:35:32 16° E
Meteor 2-5 Rocket 4.4 23:31:35 10° N 23:36:52 46° ENE 23:36:52 46° ENE
Cosmos 158 Rocket 4.4 23:41:52 10° NNW 23:46:39 61° NNE 23:46:39 61° NNE
Cosmos 2082 3.9 23:48:47 64° NE 23:48:47 64° NE 23:53:35 10° NNE
Cosmos 1607 4.1 23:41:42 10° NW 23:47:26 67° WNW 23:47:26 67° WNW
Cosmos 1375 Rocket 4.5 23:48:19 79° W 23:48:30 80° NW 23:55:10 10° NNE
USA 229 DEB 3.9 23:53:16 52° ESE 23:53:16 52° ESE 23:59:24 10° NE
USA 229 3.9 23:53:24 52° ESE 23:53:24 52° ESE 23:59:29 10° NE
